Tracking 21473 objects as of 20-Sep-2020
HD Live streaming from Space Station
objects crossing your sky now

COSMOS 2228

Track COSMOS 2228 now!
10-day predictions
COSMOS 2228 is classified as:


NORAD ID: 22286
Int'l Code: 1992-094A
Perigee: 595.1 km
Apogee: 626.5 km
Inclination: 82.5 °
Period: 96.8 minutes
Semi major axis: 6981 km
RCS: 5.331 m2 (large)
Launch date: December 25, 1992
Source: Commonwealth of Independent States (former USSR) (CIS)
Launch site: PLESETSK MISSILE AND SPACE COMPLEX (PKMTR)
aabbcc
Your satellite tracking list
Your tracking list is empty




NASA's NSSDC Master Catalog

Two Line Element Set (TLE):
1 22286U 92094A   20264.58684364 +.00000153 +00000-0 +13831-4 0  9991
2 22286 082.5216 330.1154 0022499 123.1560 237.1820 14.88165497478596
Source of the keplerian elements: AFSPC